Location: Newark
(47.0667°N, 8.7500°E)
Time: 10:52:21
(UTC+00:00)

Envisat - Visible Passes

Search period start: 28 November 2020 00:00
Search period end: 08 December 2020 00:00
Orbit: 764 x 766 km, 98.1° (Epoch: 28 November)

Date Brightness Start Highest point End Pass type
(mag) Time Alt. Az. Time Alt. Az. Time Alt. Az.
28 Nov 6.2 03:54:20 10° ENE 03:56:25 12° E 03:58:30 10° ESE visible
28 Nov 3.0 05:31:03 10° NNE 05:36:11 89° ESE 05:41:16 10° SSW visible
28 Nov 3.9 16:48:44 10° S 16:53:41 52° W 16:58:40 10° NNW visible
29 Nov 4.3 04:54:25 10° NNE 04:59:17 43° E 05:04:06 10° S visible
29 Nov 3.0 16:11:46 10° SSE 16:16:50 76° ENE 16:21:56 10° N visible
29 Nov 6.1 17:53:31 10° WSW 17:56:26 15° W 17:59:23 10° NW visible
30 Nov 5.5 04:18:20 10° NE 04:22:10 21° E 04:25:59 10° SE visible
30 Nov 3.1 05:56:34 10° N 06:01:32 55° WNW 06:06:29 10° SSW visible
30 Nov 5.0 17:14:45 10° SSW 17:19:15 31° W 17:23:46 10° NNW visible
01 Dec 3.3 05:19:40 10° NNE 05:24:46 73° ESE 05:29:51 10° S visible
01 Dec 3.5 16:37:13 10° S 16:42:15 66° WSW 16:47:20 10° NNW visible
02 Dec 4.7 04:43:10 10° NNE 04:47:49 35° E 04:52:26 10° SSE visible
02 Dec 5.8 17:41:21 10° SW 17:44:55 19° W 17:48:30 10° NW visible
03 Dec 5.8 04:07:23 10° NE 04:10:39 17° E 04:13:55 10° SE visible
03 Dec 2.9 05:45:07 10° N 05:50:11 69° WNW 05:55:13 10° SSW visible
03 Dec 4.5 17:03:03 10° SSW 17:07:46 39° W 17:12:33 10° NNW visible
04 Dec 3.6 05:08:19 10° NNE 05:13:22 58° E 05:18:22 10° S visible
04 Dec 3.2 16:25:46 10° SSE 16:30:51 81° WSW 16:35:59 10° NNW visible
04 Dec 6.3 18:09:19 10° W 18:10:41 11° W 18:12:03 10° WNW visible
05 Dec 5.1 04:31:59 10° NE 04:36:21 28° E 04:40:41 10° SSE visible
05 Dec 3.4 06:10:44 10° N 06:15:30 42° WNW 06:20:15 10° SW visible
05 Dec 5.5 17:29:22 10° SW 17:33:24 24° W 17:37:28 10° NW visible
06 Dec 6.1 03:56:38 10° ENE 03:59:07 13° E 04:01:36 10° ESE visible
06 Dec 2.9 05:33:42 10° NNE 05:38:49 85° WNW 05:43:53 10° SSW visible
06 Dec 4.1 16:51:26 10° S 16:56:20 48° W 17:01:16 10° NNW visible
07 Dec 4.1 04:57:01 10° NNE 05:01:56 47° E 05:06:48 10° S visible
07 Dec 3.0 16:14:24 10° SSE 16:19:28 82° ENE 16:24:34 10° NNW visible
07 Dec 6.1 17:56:30 10° WSW 17:59:07 14° W 18:01:47 10° NW visible
